GW4575 Weather Reports


Display with metric or nautical units.
time (UTC)temp
F
wind
direction
speed
MPH
gust
MPH
rain 1hr
in
rain 24hr
in
rain mn
in
humidity
%
barometer
mb
20260507174736 43 278 5.0 7.0 0.00 0.00 0.00 51 1011.8
20260507174235 43 228 7.0 11.0 0.00 0.00 0.00 52 1011.9
20260507173732 43 303 7.0 15.0 0.00 0.00 0.00 53 1011.7
20260507173228 43 295 5.0 11.0 0.00 0.00 0.00 56 1011.9
20260507172725 44 231 5.0 10.0 0.00 0.00 0.00 54 1012.0
20260507172222 42 299 5.0 13.0 0.00 0.00 0.00 56 1011.8
20260507171722 43 302 5.0 7.0 0.00 0.00 0.00 58 1012.0
20260507171220 44 280 4.0 9.0 0.00 0.00 0.00 55 1011.9
20260507170716 42 275 4.0 9.0 0.00 0.00 0.00 58 1012.0
20260507170213 43 296 4.0 6.0 0.00 0.00 0.00 58 1012.1
20260507165709 43 296 4.0 8.0 0.00 0.00 0.00 60 1011.9
20260507165205 44 267 4.0 6.0 0.00 0.00 0.00 58 1012.0
20260507164701 43 268 6.0 11.0 0.00 0.00 0.00 57 1012.1
20260507164159 43 271 6.0 9.0 0.00 0.00 0.00 58 1012.3
20260507163656 43 251 5.0 8.0 0.00 0.00 0.00 59 1012.4
20260507163154 42 258 2.0 4.0 0.00 0.00 0.00 59 1012.5
20260507162649 42 266 4.0 7.0 0.00 0.00 0.00 60 1012.6
20260507162146 40 284 2.0 4.0 0.00 0.00 0.00 62 1012.7
20260507161642 40 289 3.0 9.0 0.00 0.00 0.00 60 1012.7
20260507161138 41 296 4.0 4.0 0.00 0.00 0.00 59 1012.9
20260507160635 41 274 4.0 6.0 0.00 0.00 0.00 58 1012.8
20260507160132 41 292 4.0 7.0 0.00 0.00 0.00 57 1012.6
20260507155627 41 314 4.0 9.0 0.00 0.00 0.00 57 1012.8
20260507155124 41 270 7.0 8.0 0.00 0.00 0.00 55 1013.0
20260507154621 41 308 2.0 6.0 0.00 0.00 0.00 55 1012.8
20260507154118 41 268 8.0 10.0 0.00 0.00 0.00 53 1012.8
20260507153614 41 336 5.0 9.0 0.00 0.00 0.00 53 1012.8
20260507153111 43 277 5.0 6.0 0.00 0.00 0.00 51 1012.8
20260507152607 43 297 3.0 8.0 0.00 0.00 0.00 53 1012.7
20260507152103 42 293 4.0 7.0 0.00 0.00 0.00 52 1012.7
20260507151559 41 320 3.0 6.0 0.00 0.00 0.00 54 1012.6
20260507151057 41 268 1.0 3.0 0.00 0.00 0.00 56 1012.7
20260507150554 40 320 4.0 7.0 0.00 0.00 0.00 54 1012.7
20260507150050 40 15 4.0 6.0 0.00 0.00 0.00 55 1012.7
20260507145545 41 298 8.0 11.0 0.00 0.00 0.00 55 1012.8
20260507145044 41 350 5.0 11.0 0.00 0.00 0.00 55 1012.9
20260507144540 41 304 4.0 10.0 0.00 0.00 0.00 56 1012.8
20260507144038 41 264 6.0 13.0 0.00 0.00 0.00 56 1012.8
20260507143534 42 297 4.0 8.0 0.00 0.00 0.00 58 1013.0
20260507143032 42 329 3.0 10.0 0.00 0.00 0.00 59 1012.7
20260507142527 41 263 3.0 8.0 0.00 0.00 0.00 60 1012.7
20260507142024 41 220 2.0 8.0 0.00 0.00 0.00 60 1012.8
20260507141520 40 356 3.0 10.0 0.00 0.00 0.00 62 1012.8
20260507141017 40 295 4.0 7.0 0.00 0.00 0.00 60 1013.0
20260507140514 39 259 6.0 11.0 0.00 0.00 0.00 63 1012.8
20260507140012 41 306 3.0 10.0 0.00 0.00 0.00 65 1012.7
20260507135508 40 28 2.0 8.0 0.00 0.00 0.00 67 1012.6
20260507135006 40 260 5.0 9.0 0.00 0.00 0.00 68 1012.8
20260507134502 40 262 5.0 7.0 0.00 0.00 0.00 71 1012.7
20260507133958 38 299 5.0 6.0 0.00 0.00 0.00 74 1012.8
20260507133454 38 309 6.0 9.0 0.00 0.00 0.00 74 1013.0
20260507132953 38 303 2.0 7.0 0.00 0.00 0.00 75 1012.9
20260507132448 37 278 2.0 8.0 0.00 0.00 0.00 77 1012.9
20260507131945 37 290 4.0 4.0 0.00 0.00 0.00 79 1013.0
20260507131442 36 270 2.0 6.0 0.00 0.00 0.00 78 1013.0
20260507130939 36 276 4.0 4.0 0.00 0.00 0.00 79 1012.9
20260507130436 37 268 3.0 6.0 0.00 0.00 0.00 79 1013.1
20260507125935 37 277 2.0 6.0 0.00 0.00 0.00 78 1012.9
20260507125432 36 262 4.0 6.0 0.00 0.00 0.00 79 1013.1
20260507124930 36 285 5.0 7.0 0.00 0.00 0.00 78 1013.1
20260507124425 36 302 4.0 6.0 0.00 0.00 0.00 78 1012.8
20260507123924 36 290 3.0 3.0 0.00 0.00 0.00 77 1013.1
20260507123421 36 268 1.0 4.0 0.00 0.00 0.00 77 1012.9
20260507122917 36 252 2.0 3.0 0.00 0.00 0.00 78 1012.9
20260507122413 36 256 4.0 6.0 0.00 0.00 0.00 79 1012.9
20260507121909 36 267 1.0 2.0 0.00 0.00 0.00 79 1013.0
20260507121404 36 317 3.0 4.0 0.00 0.00 0.00 79 1012.9
20260507120901 36 270 2.0 6.0 0.00 0.00 0.00 80 1012.9
20260507120358 36 264 2.0 4.0 0.00 0.00 0.00 81 1012.8
20260507115854 35 241 3.0 4.0 0.00 0.00 0.00 80 1012.9
20260507115350 35 271 0.0 2.0 0.00 0.00 0.00 81 1013.0
20260507114846 35 267 0.0 3.0 0.00 0.00 0.00 80 1012.8
20260507114343 35 298 2.0 2.0 0.00 0.00 0.00 80 1012.5
20260507113840 35 268 1.0 2.0 0.00 0.00 0.00 80 1012.5
20260507113337 35 265 0.0 3.0 0.00 0.00 0.00 80 1012.5
20260507112835 35 276 2.0 3.0 0.00 0.00 0.00 80 1012.7
20260507112332 35 291 2.0 3.0 0.00 0.00 0.00 80 1012.5
20260507111830 35 267 2.0 6.0 0.00 0.00 0.00 80 1012.6
20260507111326 35 262 2.0 4.0 0.00 0.00 0.00 80 1012.5
20260507110822 35 275 1.0 2.0 0.00 0.00 0.00 80 1012.6
20260507110318 35 262 2.0 3.0 0.00 0.00 0.00 80 1012.5
20260507105815 35 270 0.0 1.0 0.00 0.00 0.00 80 1012.5
20260507105312 35 270 4.0 4.0 0.00 0.00 0.00 79 1012.6
20260507104809 35 250 3.0 4.0 0.00 0.00 0.00 79 1012.5
20260507104305 35 277 2.0 2.0 0.00 0.00 0.00 78 1012.3
20260507103801 35 262 2.0 2.0 0.00 0.00 0.00 79 1012.4
20260507103258 35 265 0.0 2.0 0.00 0.00 0.00 79 1012.5
20260507102754 35 257 0.0 1.0 0.00 0.00 0.00 78 1012.4
20260507102251 35 262 0.0 0.0 0.00 0.00 0.00 79 1012.4
20260507101747 35 267 0.0 3.0 0.00 0.00 0.00 78 1012.6
20260507101237 35 266 0.0 0.0 0.00 0.00 0.00 79 1012.5
20260507100734 35 266 0.0 0.0 0.00 0.00 0.00 78 1012.6
20260507100232 35 273 0.0 0.0 0.00 0.00 0.00 78 1012.6
20260507095730 35 264 0.0 1.0 0.00 0.00 0.00 78 1012.5
20260507095221 35 267 0.0 1.0 0.00 0.00 0.00 78 1012.5
20260507094718 35 263 1.0 1.0 0.00 0.00 0.00 77 1012.5
20260507094215 35 261 0.0 1.0 0.00 0.00 0.00 78 1012.6
20260507093711 35 253 0.0 1.0 0.00 0.00 0.00 78 1012.4
20260507093209 35 266 0.0 0.0 0.00 0.00 0.00 79 1012.6
20260507092707 35 267 0.0 1.0 0.00 0.00 0.00 79 1012.4
20260507092203 35 249 0.0 0.0 0.00 0.00 0.00 79 1012.6
20260507091659 35 269 0.0 1.0 0.00 0.00 0.00 78 1012.6
20260507091150 35 266 0.0 1.0 0.00 0.00 0.00 78 1012.7
20260507090646 35 262 0.0 0.0 0.00 0.00 0.00 79 1012.6
20260507090143 35 263 0.0 0.0 0.00 0.00 0.00 79 1012.8
20260507085640 36 253 0.0 1.0 0.00 0.00 0.00 78 1012.9
20260507085137 36 259 0.0 0.0 0.00 0.00 0.00 78 1012.8
20260507084634 36 257 0.0 2.0 0.00 0.00 0.00 78 1012.9
20260507084130 36 269 2.0 2.0 0.00 0.00 0.00 78 1012.9
20260507083627 36 281 2.0 2.0 0.00 0.00 0.00 78 1012.8
20260507083124 36 263 0.0 0.0 0.00 0.00 0.00 78 1013.0
20260507082620 36 264 0.0 3.0 0.00 0.00 0.00 77 1012.9
20260507082116 36 262 0.0 0.0 0.00 0.00 0.00 77 1012.9
20260507081613 36 262 0.0 2.0 0.00 0.00 0.00 76 1013.0
20260507081110 36 245 0.0 2.0 0.00 0.00 0.00 76 1012.9
20260507080606 36 253 0.0 0.0 0.00 0.00 0.00 76 1013.1
20260507080103 36 261 0.0 0.0 0.00 0.00 0.00 75 1013.1
20260507075557 36 253 1.0 2.0 0.00 0.00 0.00 75 1013.0
20260507075054 36 248 1.0 2.0 0.00 0.00 0.00 75 1013.0
20260507074551 36 260 0.0 2.0 0.00 0.00 0.00 75 1013.2
20260507074049 36 264 1.0 1.0 0.00 0.00 0.00 76 1013.2
20260507073545 36 267 0.0 1.0 0.00 0.00 0.00 76 1013.2
20260507073042 36 253 1.0 3.0 0.00 0.00 0.00 75 1013.1
20260507072539 36 243 1.0 2.0 0.00 0.00 0.00 75 1013.2
20260507072036 36 265 1.0 1.0 0.00 0.00 0.00 75 1013.1
20260507071533 36 268 1.0 2.0 0.00 0.00 0.00 75 1013.2
20260507071030 36 261 0.0 0.0 0.00 0.00 0.00 75 1013.2
20260507070527 36 266 0.0 0.0 0.00 0.00 0.00 75 1013.5
20260507070024 36 267 0.0 0.0 0.00 0.00 0.00 74 1013.5
20260507065520 36 280 0.0 0.0 0.00 0.00 0.00 75 1013.5
20260507065018 36 268 0.0 0.0 0.00 0.00 0.00 75 1013.6
20260507064515 36 263 0.0 2.0 0.00 0.00 0.00 75 1013.4
20260507064014 36 266 0.0 2.0 0.00 0.00 0.00 75 1013.6
20260507063511 36 262 0.0 0.0 0.00 0.00 0.00 75 1013.8
20260507063008 36 269 0.0 1.0 0.00 0.00 0.00 74 1013.9
20260507062504 36 265 0.0 1.0 0.00 0.00 0.00 75 1013.8
20260507062003 36 271 1.0 2.0 0.00 0.00 0.00 75 1013.7
20260507061500 36 265 0.0 1.0 0.00 0.00 0.00 75 1013.8
20260507060958 36 273 0.0 0.0 0.00 0.00 0.00 74 1013.8
20260507060455 36 264 0.0 1.0 0.00 0.00 0.00 74 1013.8
20260507055951 36 277 1.0 2.0 0.00 0.00 0.00 74 1013.9
20260507055446 37 285 2.0 3.0 0.00 0.00 0.00 73 1014.0
20260507054943 37 274 0.0 1.0 0.00 0.00 0.00 72 1014.0
20260507054439 37 261 1.0 2.0 0.00 0.00 0.00 71 1014.0
20260507053937 37 257 0.0 0.0 0.00 0.00 0.00 71 1014.1
20260507053434 37 249 0.0 0.0 0.00 0.00 0.00 71 1014.0
20260507052933 37 260 0.0 0.0 0.00 0.00 0.00 71 1014.0
20260507052430 37 266 0.0 1.0 0.00 0.00 0.00 70 1014.1
20260507051927 37 281 1.0 1.0 0.00 0.00 0.00 70 1013.9
20260507051424 37 282 2.0 3.0 0.00 0.00 0.00 69 1014.2
20260507050921 37 253 0.0 0.0 0.00 0.00 0.00 69 1014.1
20260507050417 37 265 0.0 2.0 0.00 0.00 0.00 69 1014.2
20260507045914 37 271 0.0 2.0 0.00 0.00 0.00 69 1014.1
20260507045410 37 261 0.0 0.0 0.00 0.00 0.00 70 1014.2
20260507044908 37 265 0.0 1.0 0.00 0.00 0.00 71 1014.2
20260507044404 37 258 0.0 1.0 0.00 0.00 0.00 70 1014.2
20260507043900 37 266 2.0 2.0 0.00 0.00 0.00 69 1014.0
20260507043357 37 266 0.0 0.0 0.00 0.00 0.00 69 1014.2
20260507042853 37 265 0.0 2.0 0.00 0.00 0.00 70 1014.2
20260507042350 37 264 1.0 3.0 0.00 0.00 0.00 69 1014.4
20260507041846 37 304 3.0 4.0 0.00 0.00 0.00 68 1014.1
20260507041343 37 329 2.0 3.0 0.00 0.00 0.00 68 1014.2
20260507040840 37 254 1.0 3.0 0.00 0.00 0.00 67 1014.3
20260507040336 37 278 1.0 4.0 0.00 0.00 0.00 67 1014.3
20260507035832 37 286 1.0 3.0 0.00 0.00 0.00 67 1014.2
20260507035327 38 269 0.0 7.0 0.00 0.00 0.00 66 1014.3
20260507034826 38 259 3.0 7.0 0.00 0.00 0.00 66 1014.4
20260507034322 38 288 1.0 3.0 0.00 0.00 0.00 66 1014.4
20260507033820 38 286 1.0 6.0 0.00 0.00 0.00 65 1014.5
20260507033318 38 268 1.0 4.0 0.00 0.00 0.00 66 1014.5
20260507032815 38 264 1.0 2.0 0.00 0.00 0.00 65 1014.5
20260507032311 38 263 2.0 4.0 0.00 0.00 0.00 66 1014.4
20260507031808 38 294 2.0 6.0 0.00 0.00 0.00 65 1014.6
20260507031304 38 281 2.0 3.0 0.00 0.00 0.00 65 1014.5
20260507030801 38 270 0.0 2.0 0.00 0.00 0.00 65 1014.6
20260507030259 38 284 1.0 3.0 0.00 0.00 0.00 64 1014.6
20260507025755 38 301 2.0 4.0 0.00 0.00 0.00 64 1014.5
20260507025253 38 278 3.0 4.0 0.00 0.00 0.00 64 1014.6
20260507024751 38 280 1.0 6.0 0.00 0.00 0.00 65 1014.6
20260507024247 38 261 5.0 8.0 0.00 0.00 0.00 64 1014.7
20260507023743 38 280 3.0 9.0 0.00 0.00 0.00 64 1014.9
20260507023240 38 263 1.0 3.0 0.00 0.00 0.00 65 1014.6
20260507022737 38 305 2.0 7.0 0.00 0.00 0.00 64 1014.6
20260507022233 38 261 3.0 7.0 0.00 0.00 0.00 64 1014.9
20260507021730 38 326 2.0 6.0 0.00 0.00 0.00 64 1014.7
20260507021225 38 327 4.0 6.0 0.00 0.00 0.00 64 1014.9
20260507020724 38 273 1.0 3.0 0.00 0.00 0.00 64 1014.7
20260507020220 37 275 4.0 6.0 0.00 0.00 0.00 63 1014.7
20260507015718 37 284 4.0 6.0 0.00 0.00 0.00 64 1014.5
20260507015215 38 261 4.0 7.0 0.00 0.00 0.00 64 1014.7
20260507014711 37 290 2.0 4.0 0.00 0.00 0.00 65 1014.6
20260507014208 37 299 3.0 6.0 0.00 0.00 0.00 64 1014.6
20260507013704 37 274 4.0 4.0 0.00 0.00 0.00 64 1014.6
20260507013202 38 248 6.0 8.0 0.00 0.00 0.00 64 1014.7
20260507012659 38 299 3.0 4.0 0.00 0.00 0.00 63 1014.6
20260507012154 38 282 2.0 6.0 0.00 0.00 0.00 63 1014.7
20260507011653 38 264 3.0 6.0 0.00 0.00 0.00 63 1014.6
20260507011148 38 292 2.0 4.0 0.00 0.00 0.00 63 1014.6
20260507010643 38 317 4.0 6.0 0.00 0.00 0.00 62 1014.9
20260507010139 38 301 5.0 8.0 0.00 0.00 0.00 63 1014.5
20260507005637 38 275 2.0 3.0 0.00 0.00 0.00 63 1014.6
20260507005133 38 268 2.0 3.0 0.00 0.00 0.00 63 1014.6
20260507004630 38 289 4.0 6.0 0.00 0.00 0.00 62 1014.6
20260507004128 38 268 1.0 7.0 0.00 0.00 0.00 63 1014.5
20260507003624 38 259 1.0 6.0 0.00 0.00 0.00 63 1014.5
20260507003119 38 264 6.0 9.0 0.00 0.00 0.00 62 1014.6
20260507002615 38 261 5.0 8.0 0.00 0.00 0.00 63 1014.5
20260507002111 38 275 8.0 10.0 0.00 0.00 0.00 62 1014.7
20260507001608 38 236 4.0 8.0 0.00 0.00 0.00 62 1014.7
20260507001106 38 261 3.0 7.0 0.00 0.00 0.00 62 1014.5
20260507000602 38 285 3.0 4.0 0.00 0.00 0.00 63 1014.6
20260507000057 38 270 4.0 9.0 0.00 0.00 0.00 62 1014.6
20260506235555 38 278 6.0 11.0 0.00 0.00 0.00 61 1014.4
20260506235050 38 250 4.0 6.0 0.00 0.00 0.00 62 1014.4
20260506234548 38 276 1.0 10.0 0.00 0.00 0.00 62 1014.6
20260506234045 38 243 4.0 9.0 0.00 0.00 0.00 61 1014.7
20260506233542 38 290 7.0 10.0 0.00 0.00 0.00 61 1014.7
20260506233038 38 289 8.0 15.0 0.00 0.00 0.00 61 1014.6
20260506232535 38 268 8.0 13.0 0.00 0.00 0.00 60 1014.7
20260506232030 38 297 3.0 9.0 0.00 0.00 0.00 61 1014.6
20260506231528 39 314 4.0 10.0 0.00 0.00 0.00 61 1014.7
20260506231020 39 268 6.0 8.0 0.00 0.00 0.00 60 1014.6
20260506230516 38 291 4.0 7.0 0.00 0.00 0.00 61 1014.6
20260506230014 38 307 6.0 11.0 0.00 0.00 0.00 61 1014.7
20260506225510 39 266 5.0 10.0 0.00 0.00 0.00 60 1014.6
20260506225006 39 254 5.0 13.0 0.00 0.00 0.00 61 1014.5
20260506224503 39 300 6.0 8.0 0.00 0.00 0.00 61 1014.7
20260506224000 39 289 6.0 8.0 0.00 0.00 0.00 61 1014.7
20260506223456 38 342 3.0 8.0 0.00 0.00 0.00 61 1014.5
20260506222953 39 261 4.0 11.0 0.00 0.00 0.00 60 1014.7
20260506222449 39 265 7.0 14.0 0.00 0.00 0.00 60 1014.7
20260506221946 39 284 5.0 11.0 0.00 0.00 0.00 61 1014.7
20260506221443 39 255 8.0 9.0 0.00 0.00 0.00 61 1014.9
20260506220941 39 262 4.0 10.0 0.00 0.00 0.00 61 1014.6
20260506220437 39 305 7.0 13.0 0.00 0.00 0.00 60 1014.7
20260506215933 39 314 4.0 9.0 0.00 0.00 0.00 61 1014.6
20260506215430 39 269 5.0 7.0 0.00 0.00 0.00 60 1014.9
20260506214925 39 300 7.0 10.0 0.00 0.00 0.00 61 1014.9
20260506214422 39 295 3.0 6.0 0.00 0.00 0.00 61 1014.7
20260506213920 40 290 6.0 11.0 0.00 0.00 0.00 60 1014.9
20260506213417 39 262 8.0 11.0 0.00 0.00 0.00 61 1014.6
20260506212915 39 327 6.0 11.0 0.00 0.00 0.00 60 1014.9
20260506212411 39 273 7.0 10.0 0.00 0.00 0.00 60 1014.6
20260506211905 39 281 4.0 11.0 0.00 0.00 0.00 62 1014.6
20260506211402 39 284 4.0 9.0 0.00 0.00 0.00 62 1014.6
20260506210859 39 314 3.0 6.0 0.00 0.00 0.00 63 1014.5
20260506210356 39 293 4.0 8.0 0.00 0.00 0.00 61 1014.9
20260506205853 40 276 4.0 10.0 0.00 0.00 0.00 60 1014.7
20260506205349 39 331 4.0 11.0 0.00 0.00 0.00 61 1014.7
20260506204846 39 256 4.0 8.0 0.00 0.00 0.00 61 1014.7
20260506204344 39 298 6.0 15.0 0.00 0.00 0.00 63 1014.9
20260506203841 39 317 6.0 9.0 0.00 0.00 0.00 62 1014.7
20260506203338 39 287 3.0 6.0 0.00 0.00 0.00 64 1014.7
20260506202835 39 300 4.0 7.0 0.00 0.00 0.00 63 1014.7
20260506202332 40 251 6.0 8.0 0.00 0.00 0.00 62 1015.2
20260506201828 39 300 6.0 9.0 0.00 0.00 0.00 63 1014.9
20260506201326 39 294 4.0 13.0 0.00 0.00 0.00 64 1014.9
20260506200822 39 272 4.0 8.0 0.00 0.00 0.00 64 1014.9
20260506200318 39 301 8.0 15.0 0.00 0.00 0.00 64 1014.9
20260506195814 39 309 5.0 11.0 0.00 0.00 0.00 64 1015.2
20260506195312 39 292 8.0 11.0 0.00 0.00 0.00 62 1015.0
20260506194809 40 283 3.0 14.0 0.00 0.00 0.00 62 1015.1
20260506194305 40 280 4.0 9.0 0.00 0.00 0.00 62 1015.0
20260506193803 40 350 5.0 9.0 0.00 0.00 0.00 63 1015.0
20260506193259 39 322 7.0 16.0 0.00 0.00 0.00 62 1015.1
20260506192756 39 272 6.0 13.0 0.00 0.00 0.00 61 1015.0
20260506192253 38 280 6.0 9.0 0.00 0.00 0.00 63 1015.0
20260506191750 40 297 8.0 17.0 0.00 0.00 0.00 61 1015.1
20260506191246 39 328 5.0 11.0 0.00 0.00 0.00 63 1014.9
20260506190743 39 278 8.0 15.0 0.00 0.00 0.00 61 1015.0
20260506190240 39 276 5.0 13.0 0.00 0.00 0.00 64 1014.7
20260506185737 38 327 8.0 13.0 0.00 0.00 0.00 63 1014.9
20260506185233 38 273 4.0 11.0 0.00 0.00 0.00 64 1014.9
20260506184731 39 229 7.0 15.0 0.00 0.00 0.00 63 1014.7
20260506184228 38 328 9.0 14.0 0.00 0.00 0.00 65 1014.9
20260506183725 39 248 10.0 15.0 0.00 0.00 0.00 63 1014.9
20260506183220 38 290 8.0 10.0 0.00 0.00 0.00 65 1014.7
20260506182718 39 284 7.0 9.0 0.00 0.00 0.00 63 1014.9
20260506182215 39 298 5.0 10.0 0.00 0.00 0.00 64 1014.9
20260506181713 38 266 3.0 9.0 0.00 0.00 0.00 64 1014.6
20260506181210 38 337 5.0 11.0 0.00 0.00 0.00 64 1014.7
20260506180707 39 283 4.0 13.0 0.00 0.00 0.00 60 1014.6
20260506180203 39 265 7.0 9.0 0.00 0.00 0.00 61 1014.9
20260506175659 39 311 11.0 13.0 0.00 0.00 0.00 58 1014.9
20260506175156 40 292 5.0 8.0 0.00 0.00 0.00 60 1014.6